Butler, PA

2:50 AM EST on November 15, 2019 (GMT -0500)
Butler County-Scholter

Weather History for KBTP - October, 2019

Change the Weather History Date:

Monday, October 21, 2019

  Actual Average Record
Temperature  
Mean Temperature 54 °F -  
Max Temperature 70 °F 56 °F 78 °F (1979)
Min Temperature 39 °F 40 °F 18 °F (1972)
Degree Days  
Heating Degree Days 10    
Growing Degree Days 4 (Base 50)    
Moisture  
Dew Point 44 °F    
Average Humidity 85    
Maximum Humidity 100    
Minimum Humidity 41    
Precipitation  
Precipitation 0.00 in - - ()
Sea Level Pressure  
Sea Level Pressure 30.01 in    
Wind  
Wind Speed 4 mph (ENE)    
Max Wind Speed 13 mph    
Max Gust Speed 20 mph    
Visibility 5 miles    
Events Fog , Rain    
Averages and records for this station are not official NWS values.
T = Trace of Precipitation, MM = Missing Value Source: NWS Daily Summary

Daily Weather History Graph

Daily Weather History Graph

Search for Another Location

Airport or City:

Astronomy

Oct. 21, 2019 Rise Set
Actual Time 7:37 AM EDT 6:30 PM EDT
Civil Twilight 7:09 AM EDT 6:58 PM EDT
Nautical Twilight 6:37 AM EDT 7:30 PM EDT
Astronomical Twilight 6:05 AM EDT 8:02 PM EDT
Moon No Moon Rise 2:55 PM EDT (10/21)
Length of Visible Light 11h 49m
Length of Day
10h 53m
Waning Gibbous, 48% of the Moon is Illuminated
Oct 21
Waning Gibbous
Oct 27
New
Nov 4
First Quarter
Nov 12
Full
Nov 19
Last Quarter

Hourly Weather History & Observations

Time (EDT) Temp. Windchill Dew Point Humidity Pressure Visibility Wind Dir Wind Speed Gust Speed Precip Events Conditions
12:56 AM 44.1 °F 42.5 °F 44.1 °F 100% 30.04 in 6.0 mi NNE 3.5 mph - N/A   Clear
1:56 AM 42.1 °F 40.2 °F 41.0 °F 96% 30.04 in 10.0 mi ENE 3.5 mph - N/A   Clear
2:12 AM 42.8 °F 41.1 °F 42.8 °F 100% 30.02 in 2.5 mi NNE 3.5 mph - N/A   Clear
2:19 AM 42.8 °F - 42.8 °F 100% 30.02 in 4.0 mi Calm Calm - N/A   Clear
2:56 AM 42.1 °F 39.2 °F 41.0 °F 96% 30.04 in 3.0 mi NNE 4.6 mph - N/A   Clear
3:07 AM 42.8 °F 41.1 °F 41.0 °F 93% 30.02 in 1.8 mi NNE 3.5 mph - N/A   Clear
3:18 AM 42.8 °F 40.1 °F 42.8 °F 100% 30.02 in 3.0 mi NNE 4.6 mph - N/A   Clear
3:56 AM 42.1 °F 39.2 °F 42.1 °F 100% 30.05 in 3.0 mi NNE 4.6 mph - N/A   Clear
4:04 AM 41.0 °F 38.0 °F 41.0 °F 100% 30.02 in 2.5 mi NE 4.6 mph - N/A   Clear
4:13 AM 41.0 °F 38.0 °F 39.2 °F 93% 30.02 in 6.0 mi ENE 4.6 mph - N/A   Clear
4:34 AM 42.8 °F 40.1 °F 42.8 °F 100% 30.03 in 1.8 mi NNE 4.6 mph - N/A   Clear
4:56 AM 42.1 °F 40.2 °F 41.0 °F 96% 30.05 in 0.8 mi NE 3.5 mph - 0.00 in Rain Light Rain
5:04 AM 42.8 °F 40.1 °F 42.8 °F 100% 30.03 in 0.5 mi NE 4.6 mph - 0.00 in Fog , Rain Light Rain
5:28 AM 42.8 °F 40.1 °F 42.8 °F 100% 30.03 in 1.0 mi NE 4.6 mph - 0.00 in Rain Light Rain
5:36 AM 42.8 °F - 42.8 °F 100% 30.03 in 1.5 mi Calm Calm - 0.00 in Rain Light Rain
5:44 AM 41.0 °F 39.0 °F 41.0 °F 100% 30.02 in 0.8 mi NE 3.5 mph - 0.00 in Rain Light Rain
5:54 AM 41.0 °F 38.0 °F 41.0 °F 100% 30.01 in 0.5 mi NE 4.6 mph - 0.00 in Fog Fog
5:56 AM 42.1 °F 39.2 °F 41.0 °F 96% 30.04 in 0.5 mi NE 4.6 mph - 0.00 in Fog , Rain Light Rain
6:04 AM 42.8 °F 41.1 °F 42.8 °F 100% 30.01 in 1.0 mi NE 3.5 mph - 0.00 in Rain Light Rain
6:12 AM 42.8 °F - 42.8 °F 100% 30.02 in 1.2 mi Calm Calm - 0.00 in Rain Light Rain
6:24 AM 44.6 °F - 44.6 °F 100% 30.03 in 2.5 mi Calm Calm - 0.00 in   Clear
6:34 AM 42.8 °F - 42.8 °F 100% 30.04 in 1.0 mi Calm Calm - 0.00 in   Clear
6:37 AM 42.8 °F - 42.8 °F 100% 30.03 in 0.5 mi Calm Calm - 0.00 in Fog Fog
6:46 AM 42.8 °F 41.1 °F 42.8 °F 100% 30.04 in 0.2 mi NNE 3.5 mph - 0.00 in Fog Fog
6:56 AM 42.1 °F 40.2 °F 42.1 °F 100% 30.07 in 0.2 mi North 3.5 mph - 0.00 in Fog Fog
7:15 AM 41.0 °F 38.0 °F 41.0 °F 100% 30.04 in 0.5 mi NE 4.6 mph - 0.00 in Fog , Rain Light Rain
7:32 AM 39.2 °F 35.0 °F 39.2 °F 100% 30.04 in 0.2 mi NE 5.8 mph - 0.00 in Fog , Rain Light Rain
7:56 AM 39.9 °F 37.8 °F 39.9 °F 100% 30.07 in 0.2 mi NE 3.5 mph - 0.00 in Fog , Rain Light Rain
8:03 AM 42.8 °F 41.1 °F 42.8 °F 100% 30.04 in 0.8 mi NNE 3.5 mph - 0.00 in Rain Light Rain
8:34 AM 44.6 °F 42.2 °F 44.6 °F 100% 30.06 in 2.5 mi NNE 4.6 mph - 0.00 in   Clear
8:43 AM 46.4 °F 45.2 °F 46.4 °F 100% 30.05 in 5.0 mi NNE 3.5 mph - 0.00 in   Clear
8:56 AM 46.9 °F - 46.9 °F 100% 30.09 in 6.0 mi Calm Calm - 0.00 in   Clear
9:56 AM 53.1 °F - 48.9 °F 86% 30.06 in 10.0 mi ESE 5.8 mph - N/A   Clear
10:56 AM 59.0 °F - 48.9 °F 69% 30.06 in 10.0 mi ESE 9.2 mph - N/A   Clear
11:56 AM 63.0 °F - 48.0 °F 58% 30.04 in 10.0 mi ESE 12.7 mph - N/A   Clear
12:56 PM 66.0 °F - 46.9 °F 50% 30.01 in 10.0 mi ESE 12.7 mph 18.4 mph N/A   Clear
1:56 PM 68.0 °F - 45.0 °F 43% 29.97 in 10.0 mi ESE 12.7 mph 18.4 mph N/A   Clear
2:56 PM 70.0 °F - 45.0 °F 41% 29.94 in 10.0 mi ESE 9.2 mph 17.3 mph N/A   Clear
3:56 PM 70.0 °F - 45.0 °F 41% 29.93 in 10.0 mi SE 12.7 mph 19.6 mph N/A   Clear
4:56 PM 68.0 °F - 45.0 °F 43% 29.91 in 10.0 mi SE 12.7 mph 19.6 mph N/A   Clear
5:56 PM 66.0 °F - 46.0 °F 48% 29.91 in 10.0 mi ESE 6.9 mph - N/A   Partly Cloudy
6:56 PM 64.9 °F - 46.0 °F 50% 29.91 in 10.0 mi ESE 8.1 mph - N/A   Clear
7:56 PM 64.0 °F - 46.0 °F 52% 29.91 in 10.0 mi ESE 8.1 mph - N/A   Partly Cloudy
8:56 PM 63.0 °F - 48.0 °F 58% 29.90 in 10.0 mi ESE 9.2 mph 16.1 mph N/A   Clear
9:56 PM 62.1 °F - 50.0 °F 65% 29.88 in 10.0 mi ESE 9.2 mph - N/A   Clear
10:56 PM 61.0 °F - 51.1 °F 70% 29.88 in 10.0 mi ESE 10.4 mph - N/A   Mostly Cloudy
11:56 PM 61.0 °F - 51.1 °F 70% 29.88 in 10.0 mi ESE 6.9 mph - N/A   Overcast